EW1600 Weather Reports


Display with metric or nautical units.
time (UTC)temp
F
wind
direction
speed
MPH
gust
MPH
rain 1hr
in
rain 24hr
in
rain mn
in
humidity
%
barometer
mb
20260503034504 36 154 0.0 0.0 0.00 0.31 0.00 77 1014.0
20260503033503 36 153 0.0 0.0 0.00 0.31 0.00 77 1014.0
20260503033004 36 153 0.0 1.0 0.00 0.31 0.00 77 1014.0
20260503032504 36 150 1.0 3.0 0.00 0.31 0.00 78 1014.0
20260503032004 37 283 0.0 1.0 0.00 0.31 0.00 78 1014.1
20260503031504 37 283 0.0 1.0 0.00 0.31 0.00 78 1014.1
20260503030004 37 104 0.0 2.0 0.00 0.31 0.00 77 1014.1
20260503025504 37 356 0.0 1.0 0.00 0.31 0.00 78 1014.1
20260503025004 36 336 0.0 1.0 0.00 0.31 0.00 79 1014.1
20260503024503 36 336 0.0 2.0 0.00 0.31 0.00 81 1014.0
20260503024003 36 39 1.0 3.0 0.00 0.31 0.00 84 1014.1
20260503023503 36 93 0.0 1.0 0.00 0.31 0.00 85 1014.0
20260503023004 36 93 0.0 0.0 0.00 0.31 0.00 86 1014.2
20260503022504 36 93 0.0 1.0 0.00 0.31 0.00 86 1014.2
20260503022004 36 93 0.0 1.0 0.00 0.31 0.00 86 1014.2
20260503021504 36 102 0.0 1.0 0.00 0.31 0.00 86 1014.2
20260503021004 36 100 0.0 1.0 0.00 0.31 0.00 86 1014.2
20260503020004 37 29 0.0 0.0 0.00 0.32 0.00 85 1014.4
20260503015503 36 29 0.0 0.0 0.00 0.32 0.00 85 1014.4
20260503015004 36 29 0.0 1.0 0.00 0.32 0.00 85 1014.5
20260503014504 36 36 0.0 1.0 0.00 0.33 0.00 85 1014.5
20260503014004 37 84 0.0 0.0 0.00 0.33 0.00 86 1014.4
20260503013504 37 84 0.0 0.0 0.00 0.33 0.00 86 1014.5
20260503013004 36 84 0.0 0.0 0.00 0.33 0.00 86 1014.5
20260503012504 36 84 0.0 0.0 0.00 0.33 0.00 86 1014.5
20260503012004 36 84 0.0 0.0 0.00 0.33 0.00 86 1014.5
20260503011504 36 84 0.0 1.0 0.00 0.33 0.00 86 1014.5
20260503011004 36 84 0.0 1.0 0.00 0.33 0.00 86 1014.6
20260503010004 36 96 0.0 2.0 0.00 0.33 0.00 87 1014.8
20260503004504 36 89 0.0 1.0 0.00 0.33 0.00 88 1014.9
20260503003504 36 102 0.0 1.0 0.00 0.33 0.00 88 1015.0
20260503003004 36 82 0.0 2.0 0.00 0.33 0.00 88 1015.0
20260503002504 36 86 0.0 1.0 0.00 0.33 0.00 88 1015.1
20260503002004 36 99 0.0 2.0 0.00 0.33 0.00 88 1015.1
20260503001503 36 99 0.0 1.0 0.00 0.33 0.00 88 1015.1
20260503001004 36 118 1.0 3.0 0.00 0.33 0.00 88 1015.1
20260503000504 35 59 1.0 3.0 0.00 0.33 0.00 88 1015.1
20260503000003 35 75 0.0 3.0 0.00 0.33 0.00 88 1015.2
20260502235504 35 91 1.0 3.0 0.00 0.33 0.00 87 1015.3
20260502235004 35 105 0.0 3.0 0.00 0.33 0.00 87 1015.3
20260502234504 36 86 2.0 3.0 0.00 0.33 0.00 86 1015.3
20260502234004 36 105 1.0 2.0 0.00 0.33 0.00 86 1015.4
20260502233504 36 115 0.0 3.0 0.00 0.33 0.00 86 1015.5
20260502233004 36 163 1.0 2.0 0.00 0.33 0.00 86 1015.4
20260502232003 36 91 1.0 3.0 0.00 0.33 0.00 85 1015.3
20260502231504 36 85 1.0 3.0 0.00 0.33 0.00 85 1015.5
20260502230504 37 103 1.0 3.0 0.00 0.33 0.00 83 1015.5
20260502230004 37 110 1.0 3.0 0.00 0.33 0.00 82 1015.5
20260502225503 37 96 1.0 2.0 0.00 0.33 0.00 81 1015.4
20260502225003 37 88 1.0 3.0 0.00 0.33 0.00 80 1015.4
20260502224504 38 69 1.0 2.0 0.00 0.33 0.00 80 1015.3
20260502224004 38 93 1.0 2.0 0.00 0.33 0.00 79 1015.3
20260502223504 38 41 0.0 3.0 0.00 0.33 0.00 79 1015.4
20260502223004 38 88 0.0 1.0 0.00 0.33 0.00 79 1015.3
20260502222504 38 91 0.0 1.0 0.00 0.33 0.00 79 1015.4
20260502222004 38 91 0.0 2.0 0.00 0.33 0.00 78 1015.4
20260502221505 38 110 0.0 1.0 0.00 0.33 0.00 78 1015.4
20260502221004 38 136 0.0 3.0 0.00 0.33 0.00 77 1015.4
20260502220505 38 339 1.0 3.0 0.00 0.33 0.00 78 1015.3
20260502220005 38 145 0.0 2.0 0.00 0.33 0.00 78 1015.5
20260502215505 38 113 0.0 1.0 0.00 0.33 0.33 78 1015.6
20260502215005 38 121 0.0 1.0 0.00 0.33 0.33 77 1015.6
20260502214504 38 151 0.0 2.0 0.00 0.33 0.33 78 1015.6
20260502214005 38 109 0.0 1.0 0.00 0.33 0.33 78 1015.6
20260502213506 38 45 0.0 1.0 0.00 0.33 0.33 77 1015.6
20260502212004 38 43 0.0 1.0 0.00 0.33 0.33 79 1015.6
20260502210504 38 126 1.0 3.0 0.00 0.33 0.33 79 1015.7
20260502210004 39 134 1.0 3.0 0.00 0.33 0.33 79 1015.7
20260502205503 38 118 0.0 2.0 0.00 0.33 0.33 78 1015.8
20260502205003 38 81 0.0 2.0 0.00 0.33 0.33 79 1015.7
20260502204003 38 1 0.0 1.0 0.00 0.33 0.33 80 1015.8
20260502203004 39 335 0.0 2.0 0.00 0.33 0.33 80 1015.7
20260502202504 39 12 1.0 2.0 0.00 0.33 0.33 80 1015.7
20260502202004 39 81 0.0 1.0 0.00 0.33 0.33 80 1015.6
20260502201003 39 49 0.0 1.0 0.00 0.33 0.33 79 1015.7
20260502200504 39 110 0.0 0.0 0.00 0.33 0.33 79 1015.7
20260502195504 39 113 1.0 2.0 0.00 0.33 0.33 77 1015.7
20260502195004 39 350 1.0 3.0 0.00 0.33 0.33 77 1015.8
20260502194504 39 164 0.0 3.0 0.00 0.33 0.33 76 1015.7
20260502194003 39 132 0.0 3.0 0.00 0.33 0.33 77 1015.6
20260502193003 39 356 1.0 2.0 0.00 0.33 0.33 77 1015.8
20260502192503 39 41 0.0 2.0 0.00 0.33 0.33 77 1015.7
20260502191503 39 60 0.0 2.0 0.00 0.33 0.33 77 1015.6
20260502191003 39 137 1.0 3.0 0.00 0.33 0.33 77 1015.6
20260502190504 39 191 0.0 1.0 0.00 0.33 0.33 77 1015.6
20260502190004 39 92 1.0 8.0 0.00 0.33 0.33 77 1015.7
20260502185504 39 80 1.0 3.0 0.00 0.33 0.33 78 1015.8
20260502185003 40 96 1.0 5.0 0.00 0.33 0.33 77 1015.7
20260502184503 40 136 1.0 2.0 0.00 0.33 0.33 76 1015.7
20260502184003 40 153 0.0 2.0 0.00 0.33 0.33 76 1015.6
20260502183503 40 108 0.0 1.0 0.00 0.33 0.33 77 1015.5
20260502183004 40 143 1.0 5.0 0.00 0.33 0.33 76 1015.6
20260502182003 40 2 1.0 2.0 0.00 0.33 0.33 78 1015.6
20260502181504 39 155 1.0 3.0 0.00 0.33 0.33 78 1015.5
20260502180504 40 149 2.0 7.0 0.00 0.33 0.33 78 1015.6
20260502170503 42 336 1.0 3.0 0.00 0.33 0.33 75 1015.6
20260502164004 42 325 1.0 3.0 0.00 0.33 0.33 76 1015.6
20260502163504 42 143 0.0 1.0 0.00 0.33 0.33 76 1015.5
20260502163003 42 138 1.0 6.0 0.00 0.33 0.33 75 1015.5
20260502162504 42 207 1.0 3.0 0.00 0.33 0.33 76 1015.5
20260502162004 42 148 1.0 3.0 0.00 0.33 0.33 75 1015.5
20260502161504 42 141 1.0 2.0 0.00 0.33 0.33 76 1015.5
20260502161004 42 114 1.0 3.0 0.00 0.33 0.33 76 1015.5
20260502160504 42 152 1.0 2.0 0.00 0.33 0.33 76 1015.6
20260502152004 40 156 1.0 3.0 0.00 0.33 0.33 79 1015.7
20260502151004 40 154 1.0 3.0 0.00 0.33 0.33 79 1015.7
20260502150504 40 83 2.0 5.0 0.00 0.33 0.33 78 1015.7
20260502130503 39 337 0.0 1.0 0.00 0.33 0.33 87 1015.8
20260502123503 39 298 2.0 3.0 0.00 0.33 0.33 86 1015.7
20260502122003 40 279 1.0 3.0 0.00 0.33 0.33 86 1015.5
20260502121003 40 289 2.0 3.0 0.00 0.33 0.33 85 1015.4
20260502120504 40 291 1.0 5.0 0.00 0.33 0.33 85 1015.3
20260502115504 40 291 2.0 7.0 0.00 0.33 0.33 85 1015.3
20260502114004 40 295 1.0 3.0 0.00 0.33 0.33 86 1015.3
20260502113004 40 296 2.0 6.0 0.00 0.33 0.33 86 1015.3
20260502112004 40 287 2.0 3.0 0.00 0.33 0.33 87 1015.1
20260502111504 40 272 3.0 7.0 0.00 0.33 0.33 87 1015.2
20260502110504 41 298 2.0 3.0 0.00 0.33 0.33 88 1015.0
20260502110004 40 284 3.0 7.0 0.00 0.33 0.33 88 1015.0
20260502105504 40 287 2.0 5.0 0.00 0.33 0.33 88 1014.9
20260502104504 40 332 3.0 7.0 0.00 0.33 0.33 89 1014.7
20260502104004 40 295 3.0 10.0 0.00 0.33 0.33 89 1014.7
20260502103503 40 311 2.0 3.0 0.01 0.33 0.33 89 1014.7
20260502103004 40 329 2.0 8.0 0.01 0.33 0.33 89 1014.5
20260502102503 40 324 3.0 10.0 0.01 0.33 0.33 90 1014.5
20260502102003 40 314 3.0 8.0 0.01 0.33 0.33 90 1014.5
20260502101503 40 307 2.0 8.0 0.01 0.33 0.33 90 1014.5
20260502101004 40 299 2.0 7.0 0.02 0.33 0.33 90 1014.4
20260502100504 40 313 3.0 10.0 0.02 0.33 0.33 90 1014.4
20260502091504 39 289 1.0 5.0 0.04 0.32 0.32 91 1014.0
20260502091003 40 292 2.0 10.0 0.03 0.31 0.31 91 1013.9
20260502090504 40 310 1.0 7.0 0.02 0.31 0.31 91 1014.0
20260502071503 42 301 1.0 3.0 0.20 0.27 0.27 91 1012.5
20260502071004 42 211 1.0 3.0 0.20 0.27 0.27 91 1012.5
20260502070503 42 267 1.0 7.0 0.20 0.26 0.26 91 1012.5
20260502070004 42 154 1.0 3.0 0.20 0.26 0.26 91 1012.4
20260502065504 43 130 2.0 3.0 0.20 0.25 0.25 90 1012.4
20260502065004 43 309 2.0 3.0 0.20 0.24 0.24 90 1012.2
20260502064504 44 296 2.0 8.0 0.20 0.24 0.24 90 1012.3
20260502063503 44 285 3.0 13.0 0.13 0.17 0.17 90 1012.2
20260502063003 45 297 7.0 13.0 0.09 0.13 0.13 90 1012.2
20260502062503 45 290 6.0 13.0 0.08 0.11 0.11 89 1012.1
20260502062004 46 287 6.0 12.0 0.06 0.09 0.09 89 1012.1
20260502061504 46 268 2.0 8.0 0.04 0.07 0.07 89 1012.0
20260502061003 46 250 5.0 9.0 0.03 0.06 0.06 89 1012.0
20260502060504 46 203 3.0 6.0 0.03 0.06 0.06 90 1011.9
20260502060004 46 164 3.0 8.0 0.03 0.06 0.06 89 1011.8
20260502055003 46 249 1.0 10.0 0.02 0.05 0.05 90 1011.8
20260502054503 46 280 2.0 5.0 0.02 0.04 0.04 90 1011.8
20260502053503 46 260 2.0 5.0 0.01 0.03 0.03 90 1011.8
20260502053004 46 176 1.0 8.0 0.01 0.03 0.03 90 1011.8
20260502052504 46 225 2.0 3.0 0.01 0.03 0.03 90 1011.8
20260502052004 46 286 0.0 2.0 0.01 0.03 0.03 90 1011.7
20260502051504 46 273 1.0 3.0 0.01 0.03 0.03 90 1011.7
20260502051003 46 200 0.0 1.0 0.01 0.03 0.03 90 1011.7
20260502050503 46 295 0.0 1.0 0.01 0.03 0.03 90 1011.7
20260502050004 46 291 0.0 1.0 0.01 0.02 0.02 90 1011.8
20260502045503 46 280 1.0 2.0 0.01 0.02 0.02 90 1011.8
20260502045003 46 277 1.0 3.0 0.01 0.02 0.02 90 1011.8
20260502044504 46 284 1.0 3.0 0.01 0.02 0.02 90 1011.8
20260502044003 46 270 1.0 7.0 0.01 0.02 0.02 90 1011.8
20260502043503 46 262 2.0 3.0 0.01 0.02 0.02 90 1011.7
20260502043004 47 274 1.0 2.0 0.01 0.02 0.02 90 1011.7
20260502042504 47 186 0.0 3.0 0.01 0.02 0.02 90 1011.8
20260502042004 47 265 1.0 6.0 0.01 0.02 0.02 89 1011.8
20260502041504 47 291 2.0 6.0 0.01 0.02 0.02 89 1011.7
20260502041003 47 291 1.0 2.0 0.01 0.02 0.02 89 1011.7
20260502040504 47 280 0.0 2.0 0.01 0.02 0.02 89 1011.7
20260502040004 47 284 0.0 2.0 0.00 0.02 0.02 89 1011.7
20260502035504 47 278 0.0 2.0 0.00 0.02 0.02 89 1011.6
20260502035004 47 270 0.0 1.0 0.00 0.02 0.02 88 1011.6